Location: Diebersbach
(48.5163°N, 8.0558°E)
Time: 18:08:00
(UTC+00:00)

USA 281 - Pass Details

Date: 24 October 2021
Orbit: 1078 x 1081 km, 106.0° (Epoch: 25 November)

Event Time Altitude Azimuth Distance (km) Brightness Sun altitude
Rises 04:18:39 0° 78° (ENE) 3,880 7.8 -17.6°
Reaches altitude 10° 04:22:50 10° 52° (NE) 2,926 6.3 -16.9°
Maximum altitude 04:25:28 13° 28° (NNE) 2,721 5.7 -16.5°
Drops below altitude 10° 04:28:06 10° 4° (N) 2,929 5.5 -16.1°
Sets 04:32:16 0° 338° (NNW) 3,888 5.9 -15.4°
